カタログに戻る

CZ-2D R/B

運用中SSO
NORAD 54641·ROCKET BODY·🇨🇳 China

打ち上げ Dec 8, 2022 から Taiyuan Satellite Launch Center

Loading…

次のパス (今後24時間)

TLE

最新Source: Space-Track

元期: Sep 14, 2026, 19:00 UTC

1 54641U 22165B   26257.79224341  .00000410  00000-0  78416-4 0  9995
2 54641  98.1633 200.4688 0031416 270.1037  89.6568 14.68841338201769

AllMySatでCZ-2D R/Bをリアルタイム追跡

Download on the App Store